Weather History for Fort Bragg, NC

Change the Weather History Date:

Sunday, November 18, 2012

  Actual Average Record
Temperature  
Mean Temperature 52 °F -  
Max Temperature 57 °F 61 °F 79 °F (2013)
Min Temperature 46 °F 40 °F 26 °F (1997)
Degree Days  
Heating Degree Days 14    
Growing Degree Days 2 (Base 50)    
Moisture  
Dew Point 45 °F    
Average Humidity 77    
Maximum Humidity 87    
Minimum Humidity 67    
Precipitation  
Precipitation 0.01 in - - ()
Sea Level Pressure  
Sea Level Pressure 30.34 in    
Wind  
Wind Speed 10 mph (NNE)    
Max Wind Speed 15 mph    
Max Gust Speed 24 mph    
Visibility 10 miles    
Events Rain    
Averages and records for this station are not official NWS values.
T = Trace of Precipitation, MM = Missing Value Source: NWS Daily Summary

Daily Weather History Graph

Daily Weather History Graph

Search for Another Location

Airport:

Trip Planner

Search our weather history database for the weather conditions in past years. The results will help you decide how hot, cold, wet, or windy it might be!

Date:

Astronomy

Nov. 18, 2012 Rise Set
Actual Time 6:53 AM EST 5:07 PM EST
Civil Twilight 6:26 AM EST 5:35 PM EST
Nautical Twilight 5:55 AM EST 6:05 PM EST
Astronomical Twilight 5:25 AM EST 6:36 PM EST
Moon 11:21 AM EST (11/18) 10:22 PM EST (11/18)
Length of Visible Light 11h 08m
Length of Day
10h 14m
Waxing Crescent, 30% of the Moon is Illuminated
Nov 18
Waxing Crescent
Nov 20
First Quarter
Nov 28
Full
Dec 6
Last Quarter
Dec 13
New

Hourly Weather History & Observations

Time (EST) Temp. Windchill Dew Point Humidity Pressure Visibility Wind Dir Wind Speed Gust Speed Precip Events Conditions
12:55 AM 46.8 °F - 39.0 °F 74% 30.41 in 10.0 mi NNE 8.1 mph - N/A   Mostly Cloudy
1:55 AM 46.0 °F 41.4 °F 39.9 °F 79% 30.39 in 10.0 mi NNE 9.2 mph - N/A   Clear
2:55 AM 46.4 °F 42.4 °F 41.2 °F 82% 30.38 in 10.0 mi NNE 8.1 mph - N/A   Clear
3:55 AM 46.6 °F - 42.1 °F 84% 30.37 in 10.0 mi North 8.1 mph - N/A   Partly Cloudy
4:32 AM 46.4 °F 42.9 °F 42.8 °F 87% 30.37 in 10.0 mi North 6.9 mph - N/A   Mostly Cloudy
4:55 AM 47.7 °F - 43.2 °F 84% 30.38 in 10.0 mi North 9.2 mph - N/A   Overcast
5:10 AM 48.2 °F - 42.8 °F 82% 30.38 in 10.0 mi North 9.2 mph - N/A   Overcast
5:55 AM 49.1 °F - 44.2 °F 83% 30.38 in 10.0 mi North 11.5 mph 18.4 mph N/A   Overcast
6:55 AM 49.3 °F - 44.8 °F 84% 30.38 in 10.0 mi NNE 11.5 mph 19.6 mph N/A   Overcast
7:55 AM 48.9 °F - 45.0 °F 86% 30.40 in 10.0 mi NNE 11.5 mph 19.6 mph N/A   Overcast
8:07 AM 48.2 °F - 44.6 °F 87% 30.40 in 10.0 mi North 10.4 mph 17.3 mph N/A   Overcast
8:55 AM 48.9 °F - 45.1 °F 87% 30.40 in 10.0 mi North 12.7 mph - N/A   Overcast
9:07 AM 50.0 °F - 44.6 °F 82% 30.39 in 10.0 mi North 10.4 mph 17.3 mph N/A   Overcast
9:55 AM 49.8 °F - 45.1 °F 84% 30.39 in 10.0 mi North 10.4 mph 19.6 mph N/A   Overcast
11:55 AM 53.4 °F - 45.3 °F 74% 30.36 in 10.0 mi NNE 13.8 mph 18.4 mph N/A   Overcast
12:55 PM 55.4 °F - 45.7 °F 70% 30.33 in 10.0 mi North 13.8 mph 21.9 mph N/A   Mostly Cloudy
1:09 PM 55.4 °F - 46.4 °F 72% 30.33 in 10.0 mi North 9.2 mph 19.6 mph N/A   Mostly Cloudy
1:55 PM 55.8 °F - 45.5 °F 68% 30.32 in 10.0 mi North 8.1 mph - N/A   Mostly Cloudy
1:57 PM 55.4 °F - 46.4 °F 72% 30.32 in 10.0 mi NNE 8.1 mph - N/A   Mostly Cloudy
2:08 PM 55.4 °F - 46.4 °F 72% 30.32 in 10.0 mi North 6.9 mph - N/A   Overcast
2:16 PM 55.4 °F - 46.4 °F 72% 30.32 in 10.0 mi North 11.5 mph - N/A   Mostly Cloudy
2:22 PM 55.4 °F - 46.4 °F 72% 30.31 in 10.0 mi North 11.5 mph - N/A   Mostly Cloudy
2:29 PM 55.4 °F - 46.4 °F 72% 30.31 in 10.0 mi North 9.2 mph 17.3 mph N/A   Mostly Cloudy
2:55 PM 56.7 °F - 46.0 °F 68% 30.31 in 10.0 mi North 8.1 mph - N/A   Mostly Cloudy
3:55 PM 56.8 °F - 46.4 °F 68% 30.31 in 10.0 mi NNE 13.8 mph 20.7 mph N/A   Mostly Cloudy
4:26 PM 57.2 °F - 46.4 °F 67% 30.31 in 10.0 mi North 10.4 mph 18.4 mph N/A Rain Light Rain
4:40 PM 57.2 °F - 46.4 °F 67% 30.31 in 10.0 mi NNE 10.4 mph - N/A   Scattered Clouds
4:55 PM 56.8 °F - 46.6 °F 69% 30.30 in 10.0 mi NNE 11.5 mph 24.2 mph 0.00 in   Scattered Clouds
5:12 PM 57.2 °F - 46.4 °F 67% 30.31 in 10.0 mi NNE 8.1 mph 18.4 mph N/A Rain Light Rain
5:29 PM 53.6 °F - 48.2 °F 82% 30.31 in 10.0 mi NNE 8.1 mph - N/A Rain Light Rain
5:33 PM 53.6 °F - 48.2 °F 82% 30.31 in 10.0 mi North 9.2 mph - N/A Rain Light Rain
5:55 PM 53.1 °F - 49.3 °F 87% 30.31 in 10.0 mi North 8.1 mph - 0.00 in Rain Light Rain
6:27 PM 53.6 °F - 48.2 °F 82% 30.32 in 10.0 mi North 6.9 mph - N/A   Overcast
6:42 PM 53.6 °F - 48.2 °F 82% 30.32 in 10.0 mi North 9.2 mph - N/A   Mostly Cloudy
6:55 PM 53.2 °F - 48.0 °F 82% 30.32 in 10.0 mi North 9.2 mph - 0.01 in   Mostly Cloudy
7:55 PM 53.2 °F - 47.5 °F 81% 30.32 in 10.0 mi NNE 11.5 mph 20.7 mph N/A   Overcast
8:55 PM 53.2 °F - 46.4 °F 78% 30.31 in 10.0 mi NNE 10.4 mph 20.7 mph N/A   Overcast
9:55 PM 53.6 °F - 45.7 °F 75% 30.30 in 10.0 mi NNE 11.5 mph - N/A   Overcast
10:55 PM 53.4 °F - 45.5 °F 75% 30.30 in 10.0 mi NNE 11.5 mph 20.7 mph N/A   Overcast
11:55 PM 53.2 °F - 45.0 °F 73% 30.29 in 10.0 mi NNE 15.0 mph 20.7 mph N/A   Overcast